Regional Weather Roundup
Issued by NWS Northern Indiana

Home | Current Version | Previous Version | Graphics & Text | Print | Product List | Glossary On
Versions: 1 2 3 4 5 6 7 8 9 10 11 12 13 14 15 16 17 18 19 20 21 22 23 24 25 26 27 28 29 30 31 32 33 34 35 36 37 38 39 40 41 42 43 44 45 46 47 48 49 50
000
ASUS43 KIWX 170710
RWRIWX

KIWX WEATHER ROUNDUP
NATIONAL WEATHER SERVICE NORTHERN INDIANA
300 AM EDT THU APR 17 2014

NOTE: "FAIR" INDICATES FEW OR NO CLOUDS BELOW 12,000 FEET WITH NO
SIGNIFICANT WEATHER AND/OR OBSTRUCTIONS TO VISIBILITY.

* THESE STATIONS ARE NOT UNDER NWS QUALITY CONTROL. THEY ALSO MAY NOT
  REPORT WEATHER SUCH AS PRECIPITATION OR FOG.

INZ001>027-170800-
NORTHERN INDIANA

CITY           SKY/WX    TMP DP  RH WIND       PRES   REMARKS
GARY*          MOCLDY    44  25  46 SE10G18   30.17F
VALPARAISO     PTCLDY    38  25  59 SE9       30.21F
MICHIGAN CITY* MOCLDY    41  23  48 SE7       30.21F
LAPORTE*       MOCLDY    38  25  58 SE7       30.22F
SOUTH BEND     MOCLDY    41  24  51 SE14      30.24S
GOSHEN         PTCLDY    38  26  62 SE14      30.25R
MONTICELLO*    PTCLDY    39  27  61 SE3       30.21F
LOGANSPORT*    CLEAR     32  27  80 E7        30.24S WCI  26
ROCHESTER*     PTCLDY    39  28  65 SE9       30.24F
WARSAW*        PTCLDY    37  27  65 SE10G17   30.24F
ANGOLA*        CLEAR     34  27  75 SE12      30.27S WCI  25
FORT WAYNE     PTCLDY    34  25  69 E8        30.27S WCI  27
HUNTINGTON*    FAIR      36  25  66 E5        30.26R
PERU/GRISSOM   CLEAR     35  30  82 SE10      30.23S WCI  27
MARION*        CLEAR     35  26  68 SE8       30.24S WCI  29

$$
INZ028>050-170800-
CENTRAL INDIANA

CITY           SKY/WX    TMP DP  RH WIND       PRES   REMARKS
LAFAYETTE      CLEAR     35  25  66 E7        30.21S WCI  29
KOKOMO*        CLEAR     36  27  69 SE8       30.23F
MUNCIE*        CLEAR     39  24  55 SE10      30.24S
INDIANAPOLIS   PTCLDY    38  23  55 SE8       30.22S

$$
MIZ043>046-050>051-056>058-064>065-071>073-077>080-170800-
SOUTHWEST LOWER MICHIGAN

CITY           SKY/WX    TMP DP  RH WIND       PRES   REMARKS
BATTLE CREEK   MOCLDY    35  26  69 SE9       30.28S WCI  28
BENTON HARBOR  MOCLDY    40  26  57 SE16      30.22F
COLDWATER*     PTCLDY    34  27  73 SE7       30.27F WCI  28
HILLSDALE*     PTCLDY    35  29  80 SE10G17   30.28F WCI  27
HOLLAND        CLOUDY    39  27  62 SE14      30.26F
GRAND RAPIDS   CLOUDY    37  24  59 SE12      30.29R
KALAMAZOO      MOCLDY    36  26  67 SE8       30.27R
STURGIS*       PTCLDY    36  25  64 SE12      30.26R
THREE RIVERS*  FAIR      35  27  70 E3        30.28R

$$
OHZ001>008-015>018-024>025-170800-
NORTHWEST OHIO

CITY           SKY/WX    TMP DP  RH WIND       PRES   REMARKS
WAUSEON*       FAIR      34  28  80 E8        30.31F WCI  27
DEFIANCE       PTCLDY    33  26  75 E8        30.30F WCI  26
FINDLAY        CLEAR     34  25  69 E7        30.29F WCI  28
TOLEDO EXPRESS CLEAR     34  27  75 E7        30.32F WCI  28
TOLEDO METCALF CLEAR     33  27  78 E6        30.34F WCI  28
LIMA           CLEAR     36  24  62 E9        30.28F

$$
&&



USA.gov is the U.S. government's official web portal to all federal, state and local government web resources and services.